Time,TemperatureF,DewpointF,PressureIn,WindDirection,WindDirectionDegrees,WindSpeedMPH,WindSpeedGustMPH,Humidity,HourlyPrecipIn,Conditions,Clouds,dailyrainin,SolarRadiationWatts/m^2,SoftwareType,DateUTC
2013-08-26 00:02:00,53.0,40.0,-100.00,ENE,58,5.0,5.0,61,0.00,,,0.00,0.800000,,2013-08-26 08:02:00,
2013-08-26 00:11:00,53.0,40.0,-100.00,ENE,58,5.0,5.0,61,0.00,,,0.00,0.800000,,2013-08-26 08:11:00,
2013-08-26 00:22:00,53.0,40.0,-100.00,ENE,58,5.0,5.0,61,0.00,,,0.00,0.800000,,2013-08-26 08:22:00,
2013-08-26 00:52:00,52.0,42.0,-100.00,NNW,334,2.0,7.0,67,0.00,,,0.00,0.800000,,2013-08-26 08:52:00,
2013-08-26 01:02:00,52.0,42.0,-100.00,NNW,334,2.0,7.0,67,0.00,,,0.00,0.800000,,2013-08-26 09:02:00,
2013-08-26 01:11:00,52.0,42.0,-100.00,NNW,334,2.0,7.0,67,0.00,,,0.00,0.800000,,2013-08-26 09:11:00,
2013-08-26 01:21:00,52.0,42.0,-100.00,NNW,334,2.0,7.0,67,0.00,,,0.00,0.800000,,2013-08-26 09:21:00,
2013-08-26 01:54:00,53.0,44.0,-100.00,ESE,110,1.0,3.0,70,0.00,,,0.00,0.800000,,2013-08-26 09:54:00,
2013-08-26 02:03:00,53.0,44.0,-100.00,ESE,110,1.0,3.0,70,0.00,,,0.00,0.800000,,2013-08-26 10:03:00,
2013-08-26 02:12:00,53.0,44.0,-100.00,ESE,110,1.0,3.0,70,0.00,,,0.00,0.800000,,2013-08-26 10:12:00,
2013-08-26 02:22:00,53.0,44.0,-100.00,ESE,110,1.0,3.0,70,0.00,,,0.00,0.800000,,2013-08-26 10:22:00,
2013-08-26 02:52:00,53.0,41.0,-100.00,East,81,3.0,3.0,65,0.00,,,0.00,0.800000,,2013-08-26 10:52:00,
2013-08-26 03:02:00,53.0,41.0,-100.00,East,81,3.0,3.0,65,0.00,,,0.00,0.800000,,2013-08-26 11:02:00,
2013-08-26 03:12:00,53.0,41.0,-100.00,East,81,3.0,3.0,65,0.00,,,0.00,0.800000,,2013-08-26 11:12:00,
2013-08-26 03:22:00,53.0,41.0,-100.00,East,81,3.0,3.0,65,0.00,,,0.00,0.800000,,2013-08-26 11:22:00,
2013-08-26 03:52:00,53.0,41.0,-100.00,SE,139,4.0,4.0,63,0.00,,,0.00,0.800000,,2013-08-26 11:52:00,
2013-08-26 04:01:00,53.0,41.0,-100.00,SE,139,4.0,4.0,63,0.00,,,0.00,0.800000,,2013-08-26 12:01:00,
2013-08-26 04:12:00,53.0,41.0,-100.00,SE,139,4.0,4.0,63,0.00,,,0.00,0.800000,,2013-08-26 12:12:00,
2013-08-26 04:21:00,53.0,41.0,-100.00,SE,139,4.0,4.0,63,0.00,,,0.00,0.800000,,2013-08-26 12:21:00,
2013-08-26 04:52:00,51.0,39.0,-100.00,WNW,282,5.0,5.0,63,0.00,,,0.00,0.800000,,2013-08-26 12:52:00,
2013-08-26 05:02:00,51.0,39.0,-100.00,WNW,282,5.0,5.0,63,0.00,,,0.00,0.800000,,2013-08-26 13:02:00,
2013-08-26 05:11:00,51.0,39.0,-100.00,WNW,282,5.0,5.0,63,0.00,,,0.00,0.800000,,2013-08-26 13:11:00,
2013-08-26 05:21:00,51.0,39.0,-100.00,WNW,282,5.0,5.0,63,0.00,,,0.00,0.800000,,2013-08-26 13:21:00,
2013-08-26 05:52:00,53.0,39.0,-100.00,SSE,159,3.0,7.0,59,0.00,,,0.00,0.800000,,2013-08-26 13:52:00,
2013-08-26 06:02:00,53.0,39.0,-100.00,SSE,159,3.0,7.0,59,0.00,,,0.00,0.800000,,2013-08-26 14:02:00,
2013-08-26 06:11:00,53.0,39.0,-100.00,SSE,159,3.0,7.0,59,0.00,,,0.00,0.800000,,2013-08-26 14:11:00,
2013-08-26 06:22:00,53.0,39.0,-100.00,SSE,159,3.0,7.0,59,0.00,,,0.00,0.800000,,2013-08-26 14:22:00,
2013-08-26 06:52:00,52.0,37.0,-100.00,ENE,64,4.0,5.0,56,0.00,,,0.00,1.400000,,2013-08-26 14:52:00,
2013-08-26 07:01:00,52.0,37.0,-100.00,ENE,64,4.0,5.0,56,0.00,,,0.00,1.400000,,2013-08-26 15:01:00,
2013-08-26 07:12:00,52.0,37.0,-100.00,ENE,64,4.0,5.0,56,0.00,,,0.00,1.400000,,2013-08-26 15:12:00,
2013-08-26 07:22:00,52.0,37.0,-100.00,ENE,64,4.0,5.0,56,0.00,,,0.00,1.400000,,2013-08-26 15:22:00,
2013-08-26 08:59:00,54.0,41.0,-100.00,SSE,165,3.0,4.0,61,-99.99,,,0.00,91.699997,,2013-08-26 16:59:00,
2013-08-26 09:06:00,54.0,41.0,-100.00,SSE,165,3.0,4.0,61,-99.99,,,0.00,91.699997,,2013-08-26 17:06:00,
2013-08-26 09:12:00,54.0,41.0,-100.00,SSE,165,3.0,4.0,61,-99.99,,,0.00,91.699997,,2013-08-26 17:12:00,
2013-08-26 09:24:00,54.0,41.0,-100.00,SSE,165,3.0,4.0,61,-99.99,,,0.00,91.699997,,2013-08-26 17:24:00,
2013-08-26 09:53:00,53.0,38.0,-100.00,WSW,254,4.0,6.0,57,0.00,,,0.00,181.199997,,2013-08-26 17:53:00,
2013-08-26 10:01:00,53.0,38.0,-100.00,WSW,254,4.0,6.0,57,0.00,,,0.00,181.199997,,2013-08-26 18:01:00,
2013-08-26 10:12:00,53.0,38.0,-100.00,WSW,254,4.0,6.0,57,0.00,,,0.00,181.199997,,2013-08-26 18:12:00,
2013-08-26 10:21:00,53.0,38.0,-100.00,WSW,254,4.0,6.0,57,0.00,,,0.00,181.199997,,2013-08-26 18:21:00,
2013-08-26 10:52:00,56.0,40.0,-100.00,NE,45,2.0,5.0,55,0.00,,,0.00,229.199997,,2013-08-26 18:52:00,
2013-08-26 11:01:00,56.0,40.0,-100.00,NE,45,2.0,5.0,55,0.00,,,0.00,229.199997,,2013-08-26 19:01:00,
2013-08-26 11:11:00,56.0,40.0,-100.00,NE,45,2.0,5.0,55,0.00,,,0.00,229.199997,,2013-08-26 19:11:00,
2013-08-26 11:22:00,56.0,40.0,-100.00,NE,45,2.0,5.0,55,0.00,,,0.00,229.199997,,2013-08-26 19:22:00,
2013-08-26 11:52:00,59.0,41.0,-100.00,NNE,18,3.0,5.0,52,0.00,,,0.00,395.500000,,2013-08-26 19:52:00,
2013-08-26 12:02:00,59.0,41.0,-100.00,NNE,18,3.0,5.0,52,0.00,,,0.00,395.500000,,2013-08-26 20:02:00,
2013-08-26 12:11:00,59.0,41.0,-100.00,NNE,18,3.0,5.0,52,0.00,,,0.00,395.500000,,2013-08-26 20:11:00,
2013-08-26 12:21:00,59.0,41.0,-100.00,NNE,18,3.0,5.0,52,0.00,,,0.00,395.500000,,2013-08-26 20:21:00,
2013-08-26 12:52:00,61.0,43.0,-100.00,West,279,2.0,5.0,51,0.00,,,0.00,572.099976,,2013-08-26 20:52:00,
2013-08-26 13:01:00,61.0,43.0,-100.00,West,279,2.0,5.0,51,0.00,,,0.00,572.099976,,2013-08-26 21:01:00,
2013-08-26 13:11:00,61.0,43.0,-100.00,West,279,2.0,5.0,51,0.00,,,0.00,572.099976,,2013-08-26 21:11:00,
2013-08-26 13:22:00,61.0,43.0,-100.00,West,279,2.0,5.0,51,0.00,,,0.00,572.099976,,2013-08-26 21:22:00,
2013-08-26 13:55:00,64.0,45.0,-100.00,SW,236,2.0,4.0,51,0.00,,,0.00,719.700012,,2013-08-26 21:55:00,
2013-08-26 14:07:00,64.0,45.0,-100.00,SW,236,2.0,4.0,51,0.00,,,0.00,719.700012,,2013-08-26 22:07:00,
2013-08-26 14:16:00,64.0,45.0,-100.00,SW,236,2.0,4.0,51,0.00,,,0.00,719.700012,,2013-08-26 22:16:00,
2013-08-26 14:26:00,64.0,45.0,-100.00,SW,236,2.0,4.0,51,0.00,,,0.00,719.700012,,2013-08-26 22:26:00,
2013-08-26 14:53:00,60.0,44.0,-100.00,West,275,4.0,5.0,56,0.00,,,0.00,380.700012,,2013-08-26 22:53:00,
2013-08-26 15:03:00,60.0,44.0,-100.00,West,275,4.0,5.0,56,0.00,,,0.00,380.700012,,2013-08-26 23:03:00,
2013-08-26 15:12:00,60.0,44.0,-100.00,West,275,4.0,5.0,56,0.00,,,0.00,380.700012,,2013-08-26 23:12:00,
2013-08-26 15:21:00,60.0,44.0,-100.00,West,275,4.0,5.0,56,0.00,,,0.00,380.700012,,2013-08-26 23:21:00,
2013-08-26 15:52:00,60.0,47.0,-100.00,NE,54,1.0,5.0,63,0.00,,,0.00,206.500000,,2013-08-26 23:52:00,
2013-08-26 16:01:00,60.0,47.0,-100.00,NE,54,1.0,5.0,63,0.00,,,0.00,206.500000,,2013-08-27 00:01:00,
2013-08-26 16:11:00,60.0,47.0,-100.00,NE,54,1.0,5.0,63,0.00,,,0.00,206.500000,,2013-08-27 00:11:00,
2013-08-26 16:21:00,60.0,47.0,-100.00,NE,54,1.0,5.0,63,0.00,,,0.00,206.500000,,2013-08-27 00:21:00,
2013-08-26 16:52:00,59.0,42.0,-100.00,SSW,209,2.0,3.0,53,0.00,,,0.00,249.399994,,2013-08-27 00:52:00,
2013-08-26 17:01:00,59.0,42.0,-100.00,SSW,209,2.0,3.0,53,0.00,,,0.00,249.399994,,2013-08-27 01:01:00,
2013-08-26 17:12:00,59.0,42.0,-100.00,SSW,209,2.0,3.0,53,0.00,,,0.00,249.399994,,2013-08-27 01:12:00,
2013-08-26 17:21:00,59.0,42.0,-100.00,SSW,209,2.0,3.0,53,0.00,,,0.00,249.399994,,2013-08-27 01:21:00,
2013-08-26 17:52:00,59.0,42.0,-100.00,WNW,295,2.0,3.0,53,0.00,,,0.00,183.399994,,2013-08-27 01:52:00,
2013-08-26 18:02:00,59.0,42.0,-100.00,WNW,295,2.0,3.0,53,0.00,,,0.00,183.399994,,2013-08-27 02:02:00,
2013-08-26 18:12:00,59.0,42.0,-100.00,WNW,295,2.0,3.0,53,0.00,,,0.00,183.399994,,2013-08-27 02:12:00,
2013-08-26 18:21:00,59.0,42.0,-100.00,WNW,295,2.0,3.0,53,0.00,,,0.00,183.399994,,2013-08-27 02:21:00,
2013-08-26 18:52:00,59.0,44.0,-100.00,NNW,327,2.0,5.0,57,0.00,,,0.00,167.000000,,2013-08-27 02:52:00,
2013-08-26 19:02:00,59.0,44.0,-100.00,NNW,327,2.0,5.0,57,0.00,,,0.00,167.000000,,2013-08-27 03:02:00,
2013-08-26 19:12:00,59.0,44.0,-100.00,NNW,327,2.0,5.0,57,0.00,,,0.00,167.000000,,2013-08-27 03:12:00,
2013-08-26 19:22:00,59.0,44.0,-100.00,NNW,327,2.0,5.0,57,0.00,,,0.00,167.000000,,2013-08-27 03:22:00,
2013-08-26 19:28:00,57.0,40.0,-100.00,East,90,4.0,5.0,53,0.00,,,0.00,108.699997,,2013-08-27 03:28:00,
2013-08-26 20:18:00,57.0,40.0,-100.00,East,90,4.0,5.0,53,0.00,,,0.00,108.699997,,2013-08-27 04:18:00,
2013-08-26 21:13:00,55.0,40.0,-100.00,WSW,237,5.0,5.0,57,0.00,,,0.00,61.500000,,2013-08-27 05:13:00,
2013-08-26 21:52:00,54.0,42.0,-100.00,SE,125,4.0,8.0,63,0.00,,,0.00,26.900000,,2013-08-27 05:52:00,
2013-08-26 22:02:00,54.0,42.0,-100.00,SE,125,4.0,8.0,63,0.00,,,0.00,26.900000,,2013-08-27 06:02:00,
2013-08-26 22:12:00,54.0,42.0,-100.00,SE,125,4.0,8.0,63,0.00,,,0.00,26.900000,,2013-08-27 06:12:00,
2013-08-26 22:21:00,54.0,42.0,-100.00,SE,125,4.0,8.0,63,0.00,,,0.00,26.900000,,2013-08-27 06:21:00,
2013-08-26 22:52:00,54.0,43.0,-100.00,WNW,300,2.0,6.0,66,0.00,,,0.00,1.100000,,2013-08-27 06:52:00,
2013-08-26 23:01:00,54.0,43.0,-100.00,WNW,300,2.0,6.0,66,0.00,,,0.00,1.100000,,2013-08-27 07:01:00,
2013-08-26 23:12:00,54.0,43.0,-100.00,WNW,300,2.0,6.0,66,0.00,,,0.00,1.100000,,2013-08-27 07:12:00,
2013-08-26 23:21:00,54.0,43.0,-100.00,WNW,300,2.0,6.0,66,0.00,,,0.00,1.100000,,2013-08-27 07:21:00,
2013-08-26 23:52:00,54.0,42.0,-100.00,NNE,14,5.0,5.0,64,0.00,,,0.00,0.800000,,2013-08-27 07:52:00,